Regional Weather Roundup
Issued by NWS Albany, NY

Home | Current Version | Previous Version | Text Only | Print | Product List | Glossary On
Versions: 1 2 3 4 5 6 7 8 9 10 11 12 13 14 15 16 17 18 19 20 21 22 23 24 25 26 27 28 29 30 31 32 33 34 35 36 37 38 39 40 41 42 43 44 45 46 47 48 49 50
000
ASUS41 KALY 050210
RWRALY

NEW YORK STATE HOURLY WEATHER ROUNDUP
NATIONAL WEATHER SERVICE ALBANY NY
1000 PM EDT MON MAY 04 2015

NOTE: "FAIR" INDICATES FEW OR NO CLOUDS BELOW 12,000 FEET WITH NO
SIGNIFICANT WEATHER AND/OR NO OBSTRUCTIONS TO VISIBILITY.

NYZ032-033-038>043-046>054-057>066-NYZ062>081-050300-
EAST


CITY           SKY/WX    TMP DP  RH WIND       PRES   REMARKS
ALBANY         MOCLDY    77  42  28 W17       30.06R
GLENS FALLS    CLOUDY    75  43  31 W10       30.04R
POUGHKEEPSIE   CLEAR     78  41  26 SW8G17    30.09R
NEWBURGH       CLEAR     75  45  33 SW14      30.12R
MONTGOMERY     CLEAR     69  45  41 SW8       30.11R
WHITE PLAINS   CLEAR     67  45  45 S6        30.15R
ISLIP          PTCLDY    65  43  44 SW16G29   30.17S
NEW YORK CITY  PTCLDY    74  42  31 S12       30.15R
CENTRAL PARK   CLEAR     74  43  32 VRB6      30.18R
$$

NYZ005>009-017-018-044>046-055-056-050300-
CENTRAL


CITY           SKY/WX    TMP DP  RH WIND       PRES   REMARKS
FULTON         CLOUDY    62  53  72 W9        30.12R
SYRACUSE       CLOUDY    63  53  70 N3        30.12R
ROME           LGT RAIN  63  52  67 NW9       30.13R
ELMIRA         CLOUDY    72  51  47 W8        30.13R
BINGHAMTON     CLOUDY    69  47  45 N13       30.15R
MONTICELLO     CLOUDY    72  41  33 S9        30.15R
$$

NYZ026>034-041>043-050300-
NORTH


CITY           SKY/WX    TMP DP  RH WIND       PRES   REMARKS
WATERTOWN      CLOUDY    58  53  84 SW13      30.10R
FORT DRUM      NOT AVBL
MASSENA        CLOUDY    60  58  92 SW8       30.05R
SARANAC LAKE   CLOUDY    60  51  72 SW9       30.06S
PLATTSBURGH    CLOUDY    68  51  54 S3        30.02R
$$

NYZ001>004-010>016-019>021-050300-
WEST


CITY           SKY/WX    TMP DP  RH WIND       PRES   REMARKS
NIAGARA FALLS  CLOUDY    57  51  80 S6        30.15R
BUFFALO        CLOUDY    54  49  83 SW12      30.17R
DUNKIRK        CLOUDY    64  55  72 SW12G23   30.18R
JAMESTOWN      CLOUDY    57  54  88 SW5       30.22R
WELLSVILLE     LGT RAIN  63  54  72 W7        30.22R
ROCHESTER      CLOUDY    66  54  65 W15       30.14R
PENN YAN       CLOUDY    70  52  52 W14G24    30.14R
$$

             KEY
       WCI = WIND CHILL INDEX
       VSB = VISIBILITY
       HX  = HEAT INDEX
$$


USA.gov is the U.S. government's official web portal to all federal, state and local government web resources and services.